EW9423 Weather Reports


time (UTC)temp
F
wind
direction
speed
knots
gust
knots
rain 1hr
in
rain 24hr
in
rain mn
in
humidity
%
barometer
mb
20260502163518 70 254 7.8 13.9 0.00 0.00 0.00 56 1012.4
20260502162538 72 251 8.7 14.8 0.00 0.00 0.00 51 1012.5
20260502161536 73 244 6.1 14.8 0.00 0.00 0.00 47 1012.5
20260502160536 74 255 7.8 14.8 0.00 0.00 0.00 44 1012.5
20260502151517 74 251 7.0 13.9 0.00 0.00 0.00 35 1012.7
20260502150517 75 253 7.0 12.2 0.00 0.00 0.00 34 1012.7
20260502130537 78 231 6.1 11.3 0.00 0.00 0.00 35 1013.7
20260502123537 77 245 5.2 13.0 0.00 0.00 0.00 35 1014.1
20260502122515 77 222 7.0 12.2 0.00 0.00 0.00 36 1014.2
20260502121517 76 211 6.1 13.0 0.00 0.00 0.00 38 1014.3
20260502120557 76 243 6.1 13.9 0.00 0.00 0.00 37 1014.4
20260502115517 76 246 6.1 13.0 0.00 0.00 0.00 37 1014.5
20260502114615 76 233 5.2 11.3 0.00 0.00 0.00 37 1014.6
20260502113516 76 206 5.2 11.3 0.00 0.00 0.00 38 1014.8
20260502112517 75 206 5.2 11.3 0.00 0.00 0.00 39 1014.9
20260502111517 74 226 5.2 13.9 0.00 0.00 0.00 38 1015.0
20260502110517 75 249 6.1 11.3 0.00 0.00 0.00 36 1015.1
20260502105517 75 203 6.1 12.2 0.00 0.00 0.00 37 1015.1
20260502104517 75 203 5.2 13.9 0.00 0.00 0.00 37 1015.2
20260502103537 75 195 6.1 12.2 0.00 0.00 0.00 37 1015.3
20260502102537 74 208 4.3 12.2 0.00 0.00 0.00 37 1015.4
20260502101517 73 226 6.1 13.0 0.00 0.00 0.00 36 1015.5
20260502100515 73 246 7.8 15.6 0.00 0.00 0.00 35 1015.7
20260502091037 72 203 4.3 10.4 0.00 0.00 0.00 43 1016.0
20260502071017 65 209 3.5 7.8 0.00 0.00 0.00 54 1016.7
20260502070017 64 217 3.5 7.0 0.00 0.00 0.00 56 1016.8
20260502065017 64 210 3.5 9.6 0.00 0.00 0.00 56 1016.9
20260502064017 63 203 3.5 7.0 0.00 0.00 0.00 58 1016.9
20260502063017 62 199 4.3 7.8 0.00 0.00 0.00 58 1016.9
20260502062017 61 197 4.3 9.6 0.00 0.00 0.00 61 1017.1
20260502061016 61 198 2.6 5.2 0.00 0.00 0.00 63 1017.2
20260502060036 60 111 0.0 1.7 0.00 0.00 0.00 65 1017.2
20260502055036 58 108 0.0 1.7 0.00 0.00 0.00 68 1017.3
20260502054016 56 186 1.7 3.5 0.00 0.00 0.00 71 1017.4
20260502053016 54 119 0.0 2.6 0.00 0.00 0.00 73 1017.4
20260502052016 53 206 0.9 4.3 0.00 0.00 0.00 73 1017.4
20260502051016 52 206 1.7 5.2 0.00 0.00 0.00 74 1017.5
20260502050057 52 203 0.9 4.3 0.00 0.00 0.00 74 1017.5
20260502045016 51 203 0.9 3.5 0.00 0.00 0.00 75 1017.6
20260502044016 50 210 0.9 3.5 0.00 0.00 0.00 76 1017.6
20260502043017 50 197 0.9 2.6 0.00 0.00 0.00 76 1017.7
20260502042017 50 221 0.9 3.5 0.00 0.00 0.00 77 1017.9
20260502041037 49 227 0.9 2.6 0.00 0.00 0.00 77 1017.9
20260502040016 49 222 0.9 3.5 0.00 0.00 0.00 76 1018.1
20260502035016 49 239 0.9 2.6 0.00 0.00 0.00 76 1018.2
20260502034016 49 239 0.9 4.3 0.00 0.00 0.00 76 1018.3
20260502033156 49 194 1.7 3.5 0.00 0.00 0.00 77 1018.5
20260502032016 49 207 0.0 3.5 0.00 0.00 0.00 77 1018.6
20260502031016 49 172 1.7 4.3 0.00 0.00 0.00 77 1018.8
20260502030036 49 197 1.7 3.5 0.00 0.00 0.00 77 1018.9
20260502025016 49 224 0.9 2.6 0.00 0.00 0.00 77 1019.1
20260502024016 49 223 0.0 1.7 0.00 0.00 0.00 77 1019.2
20260502023016 49 214 0.0 2.6 0.00 0.00 0.00 76 1019.4
20260502022016 49 213 0.9 1.7 0.00 0.00 0.00 76 1019.6
20260502021016 50 211 0.9 3.5 0.00 0.00 0.00 76 1019.6
20260502020016 50 175 1.7 5.2 0.00 0.00 0.00 76 1019.8
20260502015036 49 180 1.7 3.5 0.00 0.00 0.00 77 1019.9
20260502014016 48 185 0.9 3.5 0.00 0.00 0.00 78 1020.0
20260502013016 47 198 0.9 2.6 0.00 0.00 0.00 81 1020.2
20260502012036 46 227 0.0 2.6 0.00 0.00 0.00 84 1020.3
20260502011016 45 0 0.0 0.0 0.00 0.00 0.00 84 1020.5
20260502010016 45 0 0.0 0.0 0.00 0.00 0.00 85 1020.8
20260502005016 44 0 0.0 0.0 0.00 0.00 0.00 85 1020.9
20260502004016 44 0 0.0 0.0 0.00 0.00 0.00 84 1021.1
20260502003056 44 0 0.0 0.0 0.00 0.00 0.00 83 1021.3
20260502002016 44 0 0.0 0.0 0.00 0.00 0.00 82 1021.5
20260502001016 45 0 0.0 0.0 0.00 0.00 0.00 82 1021.6
20260502000036 45 0 0.0 0.0 0.00 0.00 0.00 83 1021.8
20260501235016 45 0 0.0 0.0 0.00 0.00 0.00 82 1021.9
20260501234016 46 0 0.0 0.0 0.00 0.00 0.00 81 1022.0
20260501233036 46 0 0.0 0.0 0.00 0.00 0.00 80 1022.1
20260501232016 46 0 0.0 0.0 0.00 0.00 0.00 80 1022.2
20260501231016 47 0 0.0 0.0 0.00 0.00 0.00 80 1022.3
20260501230016 47 0 0.0 0.0 0.00 0.00 0.00 79 1022.5
20260501225016 48 0 0.0 0.0 0.00 0.00 0.00 79 1022.5
20260501224016 48 0 0.0 0.0 0.00 0.00 0.00 78 1022.6
20260501223016 49 0 0.0 0.0 0.00 0.00 0.00 77 1022.7
20260501222016 49 0 0.0 0.0 0.00 0.00 0.00 77 1022.8
20260501221016 50 229 0.0 1.7 0.00 0.00 0.00 76 1022.9
20260501220016 50 0 0.0 0.0 0.00 0.00 0.00 76 1023.0
20260501215016 50 0 0.0 1.7 0.00 0.00 0.00 77 1023.1
20260501214016 49 233 0.0 1.7 0.00 0.00 0.00 76 1023.2
20260501213016 50 0 0.0 0.0 0.00 0.00 0.00 75 1023.2
20260501212036 50 0 0.0 0.0 0.00 0.00 0.00 74 1023.2
20260501211016 50 0 0.0 0.0 0.00 0.00 0.00 74 1023.2
20260501210016 51 0 0.0 0.0 0.00 0.00 0.00 73 1023.2
20260501205015 52 0 0.0 0.0 0.00 0.00 0.00 72 1023.1
20260501204015 52 0 0.0 0.0 0.00 0.00 0.00 71 1023.3
20260501203016 53 0 0.0 0.0 0.00 0.00 0.00 69 1023.4
20260501202036 54 0 0.0 0.0 0.00 0.00 0.00 67 1023.5
20260501201018 56 0 0.0 0.0 0.00 0.00 0.00 64 1023.7
20260501200018 58 0 0.0 0.9 0.00 0.00 0.00 61 1023.8
20260501195018 58 321 0.0 1.7 0.00 0.00 0.00 58 1023.7
20260501194018 59 321 0.0 0.9 0.00 0.00 0.00 57 1023.8
20260501193018 59 321 0.0 1.7 0.00 0.00 0.00 57 1023.8
20260501192016 60 321 0.0 2.6 0.00 0.00 0.00 57 1024.0
20260501191038 61 322 0.9 1.7 0.00 0.00 0.00 55 1023.9
20260501190018 63 321 0.9 2.6 0.00 0.00 0.00 53 1023.9
20260501185038 65 331 0.9 2.6 0.00 0.00 0.00 50 1024.0
20260501184016 66 11 0.0 0.9 0.00 0.00 0.00 49 1024.0
20260501183018 66 11 0.9 1.7 0.00 0.00 0.00 48 1024.0
20260501182018 66 11 0.0 1.7 0.00 0.00 0.00 47 1024.1
20260501181018 66 11 0.9 2.6 0.00 0.00 0.00 47 1024.1
20260501180018 66 12 0.0 2.6 0.00 0.00 0.00 47 1024.2
20260501175018 66 12 0.9 2.6 0.00 0.00 0.00 46 1024.1
20260501174018 66 358 0.9 3.5 0.00 0.00 0.00 46 1024.2
20260501173038 67 19 0.9 3.5 0.00 0.00 0.00 45 1024.3
20260501172018 67 11 0.9 3.5 0.00 0.00 0.00 46 1024.3
20260501171018 67 19 0.9 4.3 0.00 0.00 0.00 46 1024.5
20260501170016 68 6 0.9 4.3 0.00 0.00 0.00 45 1024.6
20260501165018 69 17 1.7 5.2 0.00 0.00 0.00 45 1024.7
20260501164018 70 142 0.0 2.6 0.00 0.00 0.00 44 1024.6